Tracking 29932 objects as of 3-Dec-2024
HD Live streaming from Space Station
objects crossing your sky now

STARLINK-31121

Track STARLINK-31121 now!
10-day predictions
STARLINK-31121 is classified as:


NORAD ID: 58685
Int'l Code: 2023-211U
Perigee: 494.4 km
Apogee: 495.9 km
Inclination: 43.0 °
Period: 94.4 minutes
Semi major axis: 6866 km
RCS: Unknown
Launch date: December 29, 2023
Source: United States (US)
Launch site: AIR FORCE EASTERN TEST RANGE (AFETR)
Your satellite tracking list
Your tracking list is empty




NASA's NSSDC Master Catalog

Two Line Element Set (TLE):
1 58685U 23211U   24338.81327907  .00001025  00000-0  49026-4 0  9991
2 58685  42.9979 165.1256 0001122 275.2222  84.8501 15.25915472 53182
Source of the keplerian elements: AFSPC